Hourly Data Report for October 02, 2017

All times are specified in Local Standard Time (LST). Add 1 hour to adjust for Daylight Saving Time where and when it is observed.

OTTAWA INTL A
ONTARIO

45°19'00.000" N
75°40'00.000" W
114.90 m
6106001
71628
YOW

Download Data

Hourly Data (October 2017)
Hourly Data Report for October 2, 2017
Temp Definition
°C
Dew Point Temp Definition
°C
Rel Hum Definition
%
Wind Dir Definition
10's deg

Wind Spd Definition
km/h
Visibility Definition
km
Stn Press Definition
kPa
Hmdx Definition


Wind Chill Definition


Weather Definition


TIME
00:00 Legend Double Dagger 7.6 4.6 82 21 7 24.1 101.37     LegendNANA
01:00 Legend Double Dagger 5.9 4.0 87 24 4 24.1 101.40     Mainly Clear
02:00 Legend Double Dagger 4.2 3.6 95 25 4 24.1 101.37     LegendNANA
03:00 Legend Double Dagger 5.9 5.0 93 34 4 24.1 101.41     LegendNANA
04:00 Legend Double Dagger 4.7 4.3 97 29 4 24.1 101.43     Clear
05:00 Legend Double Dagger 4.6 4.3 98 25 5 24.1 101.50     LegendNANA
06:00 Legend Double Dagger 6.4 5.9 96 28 4 6.4 101.57     Fog
07:00 Legend Double Dagger 5.6 5.2 98 36 2 0.4 101.61     Fog
08:00 Legend Double Dagger 8.6 8.3 98 36 3 2.4 101.66     Fog
09:00 Legend Double Dagger 13.7 9.4 75 36 3 24.1 101.70     LegendNANA
10:00 Legend Double Dagger 16.1 7.7 57 7 3 24.1 101.75     Mainly Clear
11:00 Legend Double Dagger 18.6 8.1 50 10 6 24.1 101.73     LegendNANA
12:00 Legend Double Dagger 19.0 6.8 44 14 14 24.1 101.71     LegendNANA
13:00 Legend Double Dagger 19.5 6.6 43 36 1 24.1 101.67     Cloudy
14:00 Legend Double Dagger 19.6 6.5 42 14 10 24.1 101.66     LegendNANA
15:00 Legend Double Dagger 19.8 6.9 43 36 2 24.1 101.66     LegendNANA
16:00 Legend Double Dagger 19.4 6.9 44 7 4 24.1 101.66     Mostly Cloudy
17:00 Legend Double Dagger 18.0 7.4 49 7 12 24.1 101.69     LegendNANA
18:00 Legend Double Dagger 15.4 7.5 59 10 5 24.1 101.71     LegendNANA
19:00 Legend Double Dagger 13.4 7.2 66 10 13 24.1 101.75     Mainly Clear
20:00 Legend Double Dagger 12.0 7.0 72 11 13 24.1 101.76     LegendNANA
21:00 Legend Double Dagger 10.9 7.0 76 10 10 24.1 101.78     LegendNANA
22:00 Legend Double Dagger 11.7 6.8 72 9 11 24.1 101.80     Clear
23:00 Legend Double Dagger 8.9 6.0 82 9 8 24.1 101.80     LegendNANA

Notes on Data Quality.

Legend

  • E = Estimated
  • M = Missing
  • NA = Not Available
  • ‡ = Partner data that is not subject to review by the National Climate Archives
Date modified: